This is the latest recevied weather packets stored in our database for station/object DF1GD-10. If no packets are shown the sender has not sent any weather packets the latest 10 day(s).
| Time | Temp. | Humidity | Pressure | Rain* | Wind** | Luminosity | Snow |
|---|---|---|---|---|---|---|---|
| 1788357486 | 24.44° C | 30% | 1019.7 hPa | - | - | - | - |
| 1788356585 | 23.33° C | 31% | 1019.8 hPa | - | - | - | - |
| 1788355685 | 23.33° C | 29% | 1019.8 hPa | - | - | - | - |
| 1788354785 | 24.44° C | 29% | 1020.1 hPa | - | - | - | - |
| 1788353885 | 23.89° C | 28% | 1020.1 hPa | - | - | - | - |
| 1788352985 | 24.44° C | 29% | 1020.2 hPa | - | - | - | - |
| 1788352085 | 25° C | 28% | 1020.3 hPa | - | - | - | - |
| 1788351185 | 22.78° C | 32% | 1020.4 hPa | - | - | - | - |
| 1788350284 | 22.78° C | 31% | 1020.4 hPa | - | - | - | - |
| 1788349384 | 23.89° C | 30% | 1020.5 hPa | - | - | - | - |
| 1788348484 | 23.33° C | 30% | 1020.7 hPa | - | - | - | - |
| 1788347584 | 26.67° C | 26% | 1020.8 hPa | - | - | - | - |
| 1788346684 | 22.22° C | 33% | 1020.8 hPa | - | - | - | - |
| 1788345784 | 21.11° C | 38% | 1020.8 hPa | - | - | - | - |
| 1788344884 | 20.56° C | 38% | 1020.9 hPa | - | - | - | - |
| 1788343984 | 20° C | 40% | 1021.1 hPa | - | - | - | - |
| 1788343083 | 21.11° C | 37% | 1021.3 hPa | - | - | - | - |
| 1788342183 | 18.33° C | 44% | 1021 hPa | - | - | - | - |
| 1788341283 | 17.78° C | 46% | 1021 hPa | - | - | - | - |
| 1788339483 | 16.11° C | 51% | 1021.2 hPa | - | - | - | - |
| 1788338583 | 15.56° C | 55% | 1021.3 hPa | - | - | - | - |
| 1788337682 | 14.44° C | 58% | 1021.2 hPa | - | - | - | - |
| 1788336782 | 14.44° C | 59% | 1021 hPa | - | - | - | - |
| 1788335882 | 13.89° C | 59% | 1020.9 hPa | - | - | - | - |
| 1788334982 | 13.33° C | 61% | 1020.9 hPa | - | - | - | - |
* Rain since midnight (hover to see other rain measurements)
** Current wind speed in m/s (hover to see current wind gust speed)